sat.trackr.live / text

‹ back to catalog

ORBCOMM FM112

NORAD 41184 · 2015-081F

PAYLOAD ACTIVE UNKNOWN

§ Identity

Operator
Country
ORB
Launch date
2015-12-22
Launch site
AFETR
Launch vehicle
Mass (kg)
RCS (m²)
0.53

Purposes: comms

External: N2YO · Heavens-Above · Gunter

§ Orbital elements

Epoch: 2026-09-20T03:04:55.117344Z

Period
98.70 min
Inclination
46.9984°
Eccentricity
0.0003486
Mean motion
14.58962078 rev/d
Perigee alt
694.1 km
Apogee alt
699.0 km
Semi-major
7,074.7 km
B*
1.0235e-4
RAAN
181.2640°
Arg perigee
288.3361°
Mean anomaly
71.7146°
Rev number
57,281

§ Raw data

ORBCOMM FM1121 41184U 15081F   26263.12841571  .00000313  00000+0  10235-3 0  99912 41184  46.9984 181.2640 0003486 288.3361  71.7146 14.58962078572813

JSON: /api/v1/satellites/41184 · /tle

For live sub-satellite position, see the globe view (requires WebGL).

§ Visibility from observer

Set your observer location to see the next 7 days of passes ≥ 10°. The values pass through the URL so the page stays shareable.

No JS? Fill the form by hand. The geolocation button needs JavaScript.

§ Radio — SatNOGS DB

ModeDescriptionDownlinkUplink
FM Telemetry 137.663 MHz
FM Telemetry 137.800 MHz

2 transmitters · refreshed weekly from db.satnogs.org